10ème édition des Coreus du L'nut de May (Stavelot)
10ème édition des Coreus du L'nut de May (Stavelot) 30/04/2015 - 9,6 km
Mise à jour le : 02/05/2015 à 16:38
Classement définitif, aucune correction possible
Place Nom Prénom Dossard Temps Vitesse Allure Place. Cat. Catégorie
1 LEFEBVRE LUDWIG 543 32:41 17,62 3:24 1 Séniors
2 FORNECK ANDREAS 812 32:54 17,50 3:25 2 Séniors
3 DETHIER GAEL 940 33:26 17,22 3:29 3 Séniors
4 LUXEN ANTOINE 598 33:55 16,97 3:32 4 Séniors
5 FICHER PIERRE 339 34:28 16,71 3:35 5 Séniors
6 HERZET FREDERICK 4 34:39 16,62 3:36 6 Séniors
7 BRONLET BENOIT 119 34:46 16,57 3:37 1 Vétérans 1
8 DENOOZ DANIEL 219 34:51 16,53 3:37 1 Vétérans 2
9 WIERTZ XAVIER 780 34:53 16,51 3:38 7 Séniors
10 DELREZ ANDY 928 35:06 16,41 3:39 8 Séniors
11 WALRAFF WALLY 678 35:12 16,36 3:40 2 Vétérans 1
12 HEINS FREDERIC 1010 35:51 16,06 3:44 9 Séniors
13 DELCOUR PHILIPPE 190 35:52 16,05 3:44 3 Vétérans 1
14 PAVEE BENOIT 932 36:06 15,95 3:45 10 Séniors
15 MARECHAL FLORENT 900 36:08 15,93 3:45 11 Séniors
16 KRUFT OLIVIER 975 36:10 15,92 3:46 12 Séniors
17 DEROUANNE FRANCOIS 1047 36:12 15,91 3:46 13 Séniors
18 RECKER MARCEL 849 36:13 15,90 3:46 2 Vétérans 2
19 DOSSIN GUILLAUME 1050 36:15 15,88 3:46 14 Séniors
20 MOLLERS JEREMY 815 36:17 15,87 3:46 1 Espoirs Garçons
21 FOGUENNE TIZIANO 290 36:22 15,83 3:47 2 Espoirs Garçons
22 CAMPIONE MICHAEL 136 36:28 15,79 3:47 15 Séniors
23 JANDRAIN FRANCOIS 381 36:34 15,75 3:48 16 Séniors
24 SEREXHE FABRICE 855 36:48 15,65 3:50 17 Séniors
25 VANHULST BENOIT 662 37:08 15,51 3:52 18 Séniors
26 LEGRAND JEAN MARC 1052 37:18 15,44 3:53 3 Vétérans 2
27 LODOMEZ OLIVIER 454 37:29 15,36 3:54 19 Séniors
28 BURNOTTE STEPHANE 866 37:39 15,30 3:55 4 Vétérans 1
29 DOUVEN THOMAS 245 37:43 15,27 3:55 20 Séniors
30 GODELAINE STEPHANE 323 37:45 15,26 3:55 21 Séniors
31 BOGAERT CHARLY 94 37:51 15,21 3:56 4 Vétérans 2
32 DECHAMBRE NICOLAS 913 38:04 15,13 3:57 3 Espoirs Garçons
33 JACQUEMOTTE LUDOVIC 375 38:09 15,09 3:58 22 Séniors
34 LEFEBVRE FRANCOIS 925 38:11 15,08 3:58 23 Séniors
35 DUPUIS GAETAN 698 38:13 15,07 3:58 24 Séniors
36 PEUTAT SEBASTIEN 681 38:15 15,06 3:59 25 Séniors
37 SERVAIS JULIEN 1033 38:16 15,05 3:59 4 Espoirs Garçons
38 COLIN THIERRY 829 38:18 15,04 3:59 5 Vétérans 1
39 FINCK JOEL 918 38:21 15,02 3:59 6 Vétérans 1
40 GOMZE MICHEL 272 38:29 14,96 4:00 7 Vétérans 1
41 KEIL ALAIN 506 38:34 14,93 4:01 8 Vétérans 1
42 MARGRAFF BRUNO 480 38:39 14,90 4:01 9 Vétérans 1
43 FEYEN PIERRE 1011 38:47 14,85 4:02 26 Séniors
44 DETAILLE JULIEN 228 38:49 14,84 4:02 27 Séniors
45 BOSKIN BERNARD 989 38:59 14,77 4:03 28 Séniors
46 FOGUENNE ALAIN 288 39:00 14,77 4:03 10 Vétérans 1
47 THUNUS JEAN 926 39:16 14,67 4:05 29 Séniors
48 SEREXHE JEROME 853 39:17 14,66 4:05 30 Séniors
49 COLLIGNON RONNY 1037 39:27 14,60 4:06 31 Séniors
50 FORT ALEX 1013 39:35 14,55 4:07 32 Séniors
51 DEHON ARNAUD 212 39:40 14,52 4:07 33 Séniors
52 BECKER JONATHAN 851 40:05 14,37 4:10 34 Séniors
53 ROZEIN DIETER 588 40:08 14,35 4:10 11 Vétérans 1
54 ANDRE RENE 47 40:10 14,34 4:11 5 Vétérans 2
55 DELOYER THOMAS 202 40:12 14,32 4:11 5 Espoirs Garçons
56 GILSON RENAUD JR 859 40:37 14,18 4:13 6 Espoirs Garçons
57 BRASSEUR JONATHAN 113 40:41 14,15 4:14 35 Séniors
58 JENNIGES ALEXANDER 1025 40:47 14,12 4:14 12 Vétérans 1
59 PINCKAERS CHRISTOPHE 1009 40:49 14,11 4:15 36 Séniors
60 PERREZ MAXIME 861 40:51 14,10 4:15 37 Séniors
61 THYS GUILLAUME 1057 41:07 14,01 4:16 38 Séniors
62 DEROANNE THIERRY 809 41:08 14,00 4:17 6 Vétérans 2
63 MARTIN FLORENT 985 41:10 13,99 4:17 7 Espoirs Garçons
64 L'HOEST CHARLOTTE 953 41:12 13,98 4:17 1 Dames
65 MICHELS DORIAN 827 41:25 13,91 4:18 8 Espoirs Garçons
66 TSAGKAS CASSANDRA 967 41:27 13,89 4:19 1 Espoirs Filles
67 JASPAR CHRISTIAN 383 41:28 13,89 4:19 1 Vétérans 3
68 DEWART RENAUD 863 41:31 13,87 4:19 39 Séniors
69 FELTEN ANTOINE 1027 41:35 13,85 4:19 40 Séniors
70 HORTEN JEAN PHILIPPE 1003 41:47 13,78 4:21 41 Séniors
71 VALOIR FRANCOIS 646 41:51 13,76 4:21 42 Séniors
72 VANBRABANT RAPHAEL 653 41:54 13,74 4:21 13 Vétérans 1
73 WAERTS ALAIN 852 42:00 13,71 4:22 2 Vétérans 3
74 THOMAS JORDAN 905 42:02 13,70 4:22 43 Séniors
75 JACQUE OLIVIER 374 42:09 13,66 4:23 44 Séniors
76 ADAM ROMAIN 1044 42:10 13,66 4:23 9 Espoirs Garçons
77 CANALES ALBERTO 130 42:22 13,59 4:24 3 Vétérans 3
78 CHATTLAIN OLIVIER 1023 42:25 13,58 4:25 14 Vétérans 1
79 WIERTZ ARNAUD 779 42:27 13,56 4:25 45 Séniors
80 SANTOS ANTERU 1042 42:30 13,55 4:25 46 Séniors
81 LOESENBORGH FRANCOIS 846 42:32 13,54 4:25 15 Vétérans 1
82 BALTHASAR BRUNO 979 42:34 13,53 4:26 47 Séniors
83 BOULANGER AURELIEN 857 42:36 13,52 4:26 10 Espoirs Garçons
84 HEUSCH VINCENT 357 42:38 13,51 4:26 16 Vétérans 1
85 VERDIN JOEL 868 42:40 13,50 4:26 17 Vétérans 1
86 CUPERS PHILIPPE 159 42:41 13,49 4:26 18 Vétérans 1
87 TSAGKAS LORYS 856 42:49 13,45 4:27 11 Espoirs Garçons
88 PEZZETTI SERGIO 919 42:56 13,42 4:28 48 Séniors
89 ALBERT VALERIE 873 43:00 13,39 4:28 2 Dames
90 ERNOTTE AUBRY 910 43:06 13,36 4:29 49 Séniors
91 HALLEUX JEAN MARIE 337 43:12 13,33 4:30 19 Vétérans 1
92 BROUWIER PIERRE 121 43:14 13,32 4:30 4 Vétérans 3
93 THONNARD JEAN-YVES 633 43:17 13,31 4:30 7 Vétérans 2
94 LHERMITTE MICHEL 826 43:20 13,29 4:30 20 Vétérans 1
95 WEY EVELYNE 880 43:27 13,26 4:31 3 Dames
96 GUILLAUME DAMIEN 6 43:28 13,25 4:31 50 Séniors
97 WEUSTEN CEDRIC 778 43:31 13,23 4:32 51 Séniors
98 BERNARD MARTIN 818 43:32 13,23 4:32 12 Espoirs Garçons
99 SERVAIS NATHALIE 898 43:33 13,22 4:32 1 Ainées 2
100 JUSTE CHRISTIAAN 398 43:35 13,22 4:32 8 Vétérans 2
101 KEYSERS CHRISTOPHE 825 43:36 13,21 4:32 21 Vétérans 1
102 DETHIER MATHIEU 991 43:38 13,20 4:32 52 Séniors
103 THOMAS ARNAUD 920 43:42 13,18 4:33 53 Séniors
104 BRASSEUR JULES 1038 43:57 13,10 4:34 13 Espoirs Garçons
105 FONTAINE SERGE 291 44:00 13,09 4:35 22 Vétérans 1
106 SOMJA JEAN PHILIPPE 613 44:02 13,08 4:35 54 Séniors
107 WERY MICHEL 687 44:04 13,07 4:35 9 Vétérans 2
108 GILLET FABRICE 318 44:07 13,05 4:35 55 Séniors
109 RENARD LIONEL 864 44:09 13,04 4:36 56 Séniors
110 FASSIN JEAN-FRANCOIS 277 44:12 13,03 4:36 57 Séniors
111 CHARLIER ALEXANDRE 137 44:13 13,02 4:36 58 Séniors
112 VAN HEUSDEN GEOFFREY 790 44:23 12,98 4:37 59 Séniors
113 SIMONS JOSIANE 850 44:25 12,96 4:37 2 Ainées 2
114 BROUWIER MICHAEL 814 44:27 12,96 4:37 60 Séniors
115 JEROME GILLES 876 44:28 12,95 4:37 61 Séniors
116 COLGEN KORNELIA 933 44:29 12,95 4:38 3 Ainées 2
117 LORQUET SYLVIE 741 44:30 12,94 4:38 4 Ainées 2
118 LORQUET JEAN - MARC 10 44:32 12,93 4:38 10 Vétérans 2
119 HABOTTE SIMON 1054 44:33 12,93 4:38 62 Séniors
120 SCHMITT JULIEN 894 44:46 12,86 4:39 14 Espoirs Garçons
121 DELOYER LAURENT 201 44:53 12,83 4:40 63 Séniors
122 LAMBY MICHEL 968 44:56 12,82 4:40 23 Vétérans 1
123 GEIEBENNE OLIVIER 887 44:57 12,81 4:40 64 Séniors
124 WINANDY JEAN PIERRE 972 45:00 12,80 4:41 11 Vétérans 2
125 CLERFAYS HUBERT 142 45:02 12,79 4:41 5 Vétérans 3
126 REMY PATRICK 974 45:07 12,76 4:42 24 Vétérans 1
127 LORQUET SARAH 462 45:12 12,74 4:42 4 Dames
128 HAVARD PHILIPPE 890 45:21 12,70 4:43 25 Vétérans 1
129 SONNET JENNY 824 45:23 12,69 4:43 5 Dames
130 CARABIN MARTINE 131 45:27 12,67 4:44 5 Ainées 2
131 BONFOND DAVID 99 45:29 12,66 4:44 26 Vétérans 1
132 GILLET ROMAIN 924 45:35 12,63 4:44 65 Séniors
133 LEGAT FRANCOIS 945 45:41 12,61 4:45 66 Séniors
134 DENOEL XAVIER 869 45:43 12,60 4:45 67 Séniors
135 DUSSARD JULIEN 981 45:46 12,58 4:46 68 Séniors
136 DETHIER JEAN FRANCOIS 230 45:51 12,56 4:46 69 Séniors
137 HICK STEFAN 1039 45:53 12,55 4:46 70 Séniors
138 MIGNON PHILIPPE 628 46:00 12,52 4:47 27 Vétérans 1
139 DEHOTTAY NICOLAS 1022 46:05 12,50 4:48 71 Séniors
140 BEMELMANS PIERRE 19 46:08 12,48 4:48 28 Vétérans 1
141 SELS JEROME 1035 46:13 12,46 4:48 72 Séniors
142 FAYMONVILLE CEDRIC 279 46:16 12,45 4:49 73 Séniors
143 PONS ANNE 550 46:33 12,37 4:50 6 Ainées 2
144 GUISSARD BENOIT-POL 842 46:40 12,34 4:51 74 Séniors
145 PAQUAY RAPHAEL 1002 46:43 12,33 4:52 75 Séniors
146 DEMOL CINDY 211 46:51 12,29 4:52 1 Ainées 1
147 SECLI MAX 744 46:52 12,29 4:52 76 Séniors
148 NYSSEN EMILIE 668 46:55 12,27 4:53 6 Dames
149 HALLET PHILIPPE 1046 46:59 12,26 4:53 29 Vétérans 1
150 DE CORTE JEROEN 854 47:04 12,24 4:54 77 Séniors
151 MARECHAL THOMAS 949 47:05 12,23 4:54 15 Espoirs Garçons
152 COLLETTE THOMAS 987 47:06 12,23 4:54 78 Séniors
153 THONON ALINE 942 47:08 12,22 4:54 7 Dames
154 SCHULZ ARNAUD 902 47:14 12,19 4:55 79 Séniors
155 LEGRAND PIERRE 847 47:15 12,19 4:55 30 Vétérans 1
156 BIET NANA 1005 47:16 12,18 4:55 7 Ainées 2
157 DELNEUVILLE PHILIPPE 199 47:18 12,18 4:55 31 Vétérans 1
158 GOBELS FRANCY 388 47:19 12,17 4:55 32 Vétérans 1
159 DELNEUVILLE ERIC 200 47:20 12,17 4:55 33 Vétérans 1
160 COLIN JEAN-LOUIS 144 47:21 12,16 4:55 6 Vétérans 3
161 LAVAL WILLIAM 950 47:22 12,16 4:56 16 Espoirs Garçons
162 COLLIN STEFAN 1024 47:30 12,12 4:56 12 Vétérans 2
163 QUOIDBACH MARC 939 47:33 12,11 4:57 7 Vétérans 3
164 GOFFART GUILLAUME 1020 47:36 12,10 4:57 80 Séniors
165 MANSET ADELINE 474 47:39 12,09 4:57 8 Dames
166 SCHMITZ JEROME 803 47:41 12,08 4:58 81 Séniors
167 CANADA-MUNOZ JORDAN 836 47:54 12,02 4:59 17 Espoirs Garçons
168 ROUFOSSE UGO 34 47:55 12,02 4:59 34 Vétérans 1
169 JEROME STEPHANE 17 47:59 12,00 4:59 35 Vétérans 1
170 DUVIVIER MARC 253 48:00 12,00 5:00 13 Vétérans 2
171 FELTEN CORENTIN 1026 48:08 11,96 5:00 82 Séniors
172 JOSTEN PASCAL 993 48:09 11,96 5:01 83 Séniors
173 MOHON OPHELIE 501 48:11 11,95 5:01 2 Espoirs Filles
174 MEHON BRANDON 963 48:12 11,95 5:01 84 Séniors
175 FOSSOUL RAPHAEL 951 48:14 11,94 5:01 85 Séniors
176 MOTTARD SOPHIE 8 48:16 11,93 5:01 2 Ainées 1
177 SCHOONBROODT BENOIT 3 48:17 11,93 5:01 36 Vétérans 1
178 SCHMITZ NICOLAS 931 48:21 11,91 5:02 18 Espoirs Garçons
179 HELSEN PHILIPPE 800 48:24 11,90 5:02 14 Vétérans 2
180 PESSER ALAIN 535 48:25 11,89 5:02 37 Vétérans 1
181 WILLEM FLORENCE 839 48:26 11,89 5:02 3 Ainées 1
182 BINOT ALEXANDRE 999 48:27 11,89 5:02 86 Séniors
183 LINCE GUY 452 48:31 11,87 5:03 15 Vétérans 2
184 CHEFNEUX SEBASTIEN 140 48:33 11,86 5:03 87 Séniors
185 LEGROS GHISLAIN 432 48:34 11,86 5:03 38 Vétérans 1
186 GREEN DAVID 889 48:36 11,85 5:03 88 Séniors
187 ERNST NATHALIE 872 48:37 11,84 5:03 8 Ainées 2
188 HIERNAUX AURELIE 467 48:39 11,84 5:04 4 Ainées 1
189 DETHIER JULIEN 990 48:48 11,80 5:05 89 Séniors
190 ADAM YVES 959 48:51 11,79 5:05 39 Vétérans 1
191 VERKENNE STEPHANIE 885 48:53 11,78 5:05 9 Dames
192 ROUFOSSE ARNAUD 1053 49:00 11,75 5:06 90 Séniors
193 FOGUENNE MICHELINE 289 49:09 11,72 5:07 5 Ainées 1
194 BANDE MARTIN 808 49:17 11,68 5:08 19 Espoirs Garçons
195 MATHIEU CLAUDY 486 49:19 11,68 5:08 40 Vétérans 1
196 ALBERT CÉLINE 1012 49:25 11,66 5:08 10 Dames
197 DEMOLLIN MARC 867 49:32 11,63 5:09 8 Vétérans 3
198 HAYON KATRIEN 936 49:33 11,62 5:09 6 Ainées 1
199 JEROME TOM 984 49:37 11,61 5:10 91 Séniors
200 DIFFELS BENJAMIN 1021 49:39 11,60 5:10 92 Séniors
201 MICHELS ALAIN 971 49:41 11,59 5:10 41 Vétérans 1
202 PAULIS GERARD 980 49:43 11,58 5:10 93 Séniors
203 WYNENDAELE SEBASTIEN 1019 49:45 11,58 5:10 94 Séniors
204 KONINGS NATHALIE 526 49:46 11,57 5:11 9 Ainées 2
205 BECKERS PATRICK 66 49:47 11,57 5:11 42 Vétérans 1
206 RUIZ SABRINA 729 49:49 11,56 5:11 11 Dames
207 SERVATY ALEXANDRE 807 49:50 11,55 5:11 20 Espoirs Garçons
208 DORTU FLORIAN 1031 49:55 11,54 5:12 21 Espoirs Garçons
209 DOTHEE DANIEL 912 49:58 11,52 5:12 43 Vétérans 1
210 FONTAINE OLIVIER 843 49:59 11,52 5:12 95 Séniors
211 RAVIGNAT EMMANUEL 1007 50:03 11,51 5:12 96 Séniors
212 LAMBERT NOA 813 50:06 11,50 5:13 22 Espoirs Garçons
213 HAC SENITH 1040 50:09 11,48 5:13 44 Vétérans 1
214 DELHEZ ALBERT 952 50:23 11,43 5:14 9 Vétérans 3
215 STEPHANE BRUNO 751 50:26 11,42 5:15 16 Vétérans 2
216 FACEN BEATRICE 841 50:29 11,41 5:15 1 Ainées 3
217 BERTRANG JULIEN 79 50:34 11,39 5:16 10 Vétérans 3
218 DORTU PHILIPPE 1030 50:36 11,38 5:16 45 Vétérans 1
219 MOUFFE BENOIT 938 50:48 11,34 5:17 97 Séniors
220 BRONFORT LAETITIA 947 50:49 11,33 5:17 12 Dames
221 LEPORCK MARGAUX 948 50:50 11,33 5:17 13 Dames
222 JEUCKENS ANNE-AYMONE 858 50:59 11,30 5:18 14 Dames
223 DERKENNE XAVIER 1004 51:00 11,29 5:18 98 Séniors
224 TALBOT THIERRY 956 51:02 11,29 5:18 46 Vétérans 1
225 LIMBOURG GUILLAUME 802 51:08 11,26 5:19 99 Séniors
226 LIMBOURG YVES 801 51:09 11,26 5:19 47 Vétérans 1
227 COUVREUR CHARLES-PHILIPPE 897 51:12 11,25 5:20 11 Vétérans 3
228 SOLHEID MARJORIE 835 51:15 11,24 5:20 3 Espoirs Filles
229 BONIVER NANCY 31 51:19 11,22 5:20 7 Ainées 1
230 MARECHAL DAVID 479 51:21 11,22 5:20 100 Séniors
231 ROOMANS BENOIT 998 51:22 11,21 5:21 101 Séniors
232 CRASSON LAURENT 183 51:23 11,21 5:21 102 Séniors
233 GRANDJEAN JEAN-LUC 871 51:29 11,19 5:21 48 Vétérans 1
234 HERMAN SYLVIANE 353 51:33 11,17 5:22 10 Ainées 2
235 DEGUELDRE PHILIPPE 832 51:36 11,16 5:22 103 Séniors
236 DUMOULIN FRANCOISE 1001 51:37 11,16 5:22 8 Ainées 1
237 MANSET PIERRE 893 51:39 11,15 5:22 104 Séniors
238 VANDERSANDEN HUGO 896 51:41 11,14 5:23 49 Vétérans 1
239 COLSON GEOFFREY 173 51:43 11,14 5:23 105 Séniors
240 ZUBIOLO EMMANUELLE 911 51:49 11,11 5:23 9 Ainées 1
241 BASSLEER OLIVIER 60 51:52 11,10 5:24 50 Vétérans 1
242 WILLEM ANNE-SOPHIE 837 52:08 11,05 5:25 15 Dames
243 WEBER GERTY 683 52:17 11,01 5:26 2 Ainées 3
244 GROSCH JULIEN 817 52:21 11,00 5:27 23 Espoirs Garçons
245 NACHSEM FRANK 811 52:23 10,99 5:27 51 Vétérans 1
246 BLEUS NICOLAS 1000 52:30 10,97 5:28 106 Séniors
247 BAART SYLVIANE 50 52:32 10,96 5:28 11 Ainées 2
248 VANAUBEL MARILYN 765 52:37 10,94 5:28 16 Dames
249 MARICHAL SANDRA 804 52:53 10,89 5:30 10 Ainées 1
250 RENTMEISTER JEAN 805 52:53 10,89 5:30 17 Vétérans 2
251 LAMBERT DAMIEN 531 53:01 10,86 5:31 107 Séniors
252 HENROTTIN PIERRE 895 53:09 10,84 5:32 18 Vétérans 2
253 CARDINAL-FRAS BRUNO 892 53:10 10,83 5:32 52 Vétérans 1
254 VIAENE MARIE 917 53:12 10,83 5:32 17 Dames
255 BRIXHE OLIVIER 937 53:13 10,82 5:32 1 Vétérans 4
256 CRUTZEN DONATIENNE 914 53:20 10,80 5:33 18 Dames
257 MARCHAL AMAURY 477 53:26 10,78 5:34 108 Séniors
258 WEBER GILBERTE 682 53:31 10,76 5:34 3 Ainées 3
259 D'AMATO PIETRO 1032 53:32 10,76 5:34 53 Vétérans 1
260 LIEBENS THIBAUT 966 53:34 10,75 5:34 19 Vétérans 2
261 JOTTAY PHILIPPE 1043 53:36 10,74 5:35 109 Séniors
262 THEISS SANDRA 882 54:04 10,65 5:37 11 Ainées 1
263 THUNUS STEPHANIE 958 54:07 10,64 5:38 12 Ainées 1
264 BACH ANJA 881 54:16 10,61 5:39 13 Ainées 1
265 SCHREUER ANDRE 806 54:19 10,60 5:39 20 Vétérans 2
266 COUMONT RENE 865 54:20 10,60 5:39 12 Vétérans 3
267 LEJEUNE LIONEL 833 54:21 10,60 5:39 110 Séniors
268 DUPONT CHLOE 976 54:24 10,59 5:40 19 Dames
269 HERTAY FRANCOISE 451 54:29 10,57 5:40 14 Ainées 1
270 DEVILLE HELOISE 1006 54:50 10,50 5:42 20 Dames
271 MAUHIN JOELLE 489 54:53 10,49 5:43 12 Ainées 2
272 NOEL DANY 870 55:06 10,45 5:44 21 Vétérans 2
273 MOLINGHEN LAURIE 1049 55:17 10,42 5:45 21 Dames
274 ASMAN PAUL 1016 55:27 10,39 5:46 13 Vétérans 3
275 DELCOUR SYLVIANE 226 55:32 10,37 5:47 22 Dames
276 PIRLOT BERNARD 541 55:34 10,36 5:47 111 Séniors
277 LEMOINE ALINE 563 55:41 10,34 5:48 15 Ainées 1
278 TOSSENS GEORGES 1029 55:44 10,33 5:48 22 Vétérans 2
279 LENTZ CAROLINE 935 56:03 10,27 5:50 16 Ainées 1
280 GENTGES LUCIE 1048 56:05 10,27 5:50 23 Dames
281 SCHMITZ JEAN-MARC 941 56:28 10,20 5:52 54 Vétérans 1
282 LOFFET CHRISTIAN 929 56:42 10,16 5:54 14 Vétérans 3
283 BARATTO MARIE 1051 56:46 10,15 5:54 24 Dames
284 REINDERS THIERRY 944 56:49 10,14 5:55 55 Vétérans 1
285 SCHAUS NICOLE 848 56:52 10,13 5:55 25 Dames
286 MARREDDA FLAVIO 828 57:00 10,10 5:56 56 Vétérans 1
287 BOES DOROTHEE 93 57:04 10,09 5:56 13 Ainées 2
288 JONLET LIONEL 13 57:06 10,09 5:56 112 Séniors
289 SERVAIS ROMY 746 57:21 10,04 5:58 26 Dames
290 LENOIR KATHLEEN 995 57:23 10,04 5:58 27 Dames
291 WANSART JOELLE 679 57:39 9,99 6:00 17 Ainées 1
292 LOFGEN MIREILLE 456 57:40 9,99 6:00 18 Ainées 1
293 FOURNIER LAURENCE 921 57:41 9,98 6:00 28 Dames
294 SCHMITZ LYDIE 973 57:43 9,98 6:00 29 Dames
295 MARTIN FABIEN 962 57:50 9,96 6:01 57 Vétérans 1
296 MARTIN FABIEN 983 57:51 9,96 6:01 23 Vétérans 2
297 LAMBRECHT CELINE 845 57:58 9,94 6:02 19 Ainées 1
298 SCHMITZ ALAIN 930 58:04 9,92 6:03 58 Vétérans 1
299 DETHIER JEAN-HENRI 992 58:11 9,90 6:03 24 Vétérans 2
300 DETHIER NOEMIE 927 58:13 9,89 6:03 30 Dames
301 MARUCCIA LAETITIA 1034 58:21 9,87 6:04 31 Dames
302 GAROT JOANNA 14 58:36 9,83 6:06 20 Ainées 1
303 BLAISE PIERRE 965 58:38 9,82 6:06 59 Vétérans 1
304 FLAMMANG GREGORY 877 58:39 9,82 6:06 113 Séniors
305 ROUFOSSE JEAN 964 58:40 9,82 6:06 60 Vétérans 1
306 LAMBERT ALAIN 970 58:47 9,80 6:07 25 Vétérans 2
307 ALARD PATRICIA 860 58:49 9,79 6:07 21 Ainées 1
308 POTHEN NATHALIE 907 58:50 9,79 6:07 32 Dames
309 DOUMEN RAPHAEL 909 58:51 9,79 6:07 114 Séniors
310 CRAHAY JEREMIE 879 58:53 9,78 6:08 115 Séniors
311 LALLEMANT VIRGINIE 878 58:55 9,77 6:08 33 Dames
312 POITOUX ISABELLE 886 58:57 9,77 6:08 22 Ainées 1
313 COURARD DIDIER 969 59:01 9,76 6:08 26 Vétérans 2
314 GRANDJEAN DANIEL 934 59:05 9,75 6:09 27 Vétérans 2
315 TOMBERG CELINE 982 59:33 9,67 6:12 34 Dames
316 LEJEUNE CATHERINE 977 59:33 9,67 6:12 35 Dames
317 FRISSCHEN JACQUES 298 59:45 9,64 6:13 2 Vétérans 4
318 QUIRIN FANNY 906 59:46 9,64 6:13 36 Dames
319 BERNES SOPHIE 978 59:48 9,63 6:13 37 Dames
320 WILLEMS VIRGINIE 1056 59:50 9,63 6:13 23 Ainées 1
321 GERON VALERIE 1055 59:51 9,62 6:14 24 Ainées 1
322 LECOCQ CEDRIC 988 59:55 9,61 6:14 116 Séniors
323 WILKIN ANDRE 690 1:00:15 9,56 6:16 15 Vétérans 3
324 JAPSENNE AURORE 1015 1:00:16 9,56 6:16 38 Dames
325 JEORIS ANNE 1014 1:00:17 9,55 6:16 39 Dames
326 L'HOEST MARIE 954 1:00:54 9,46 6:20 40 Dames
327 LALLOYER STEPHANIE 820 1:01:11 9,41 6:22 41 Dames
328 SARLET LAETITIA 821 1:01:12 9,41 6:22 42 Dames
329 LEROY CHRISTINE 1041 1:01:13 9,41 6:22 25 Ainées 1
330 DUMONT VALERIE 831 1:01:20 9,39 6:23 26 Ainées 1
331 BRIOT FABIEN 830 1:01:21 9,39 6:23 61 Vétérans 1
332 CORNET PASCAL 955 1:01:27 9,37 6:24 62 Vétérans 1
333 SEPULT LAETITIA 1045 1:01:43 9,33 6:25 43 Dames
334 MAQUINAY FELICIEN 475 1:01:57 9,30 6:27 28 Vétérans 2
335 MICHEL VALERIE 816 1:02:22 9,23 6:29 27 Ainées 1
336 OLIVIER ALAIN 875 1:02:42 9,19 6:31 29 Vétérans 2
337 GENON MARIE-PIERRE 1018 1:03:03 9,13 6:34 14 Ainées 2
338 LEJEUNE KATHY 1017 1:03:04 9,13 6:34 28 Ainées 1
339 BADART VERONIQUE 888 1:04:59 8,86 6:46 29 Ainées 1
340 LEMPEREUR PATRICE 446 1:05:36 8,78 6:50 16 Vétérans 3
341 HAMES LAURENCE 908 1:05:54 8,74 6:51 30 Ainées 1
342 FRANSOLET FREDERIC 1036 1:07:08 8,58 6:59 63 Vétérans 1
343 HUBIN JOHANNE 915 1:07:27 8,54 7:01 44 Dames
344 MASSON LAURA 916 1:07:28 8,54 7:01 4 Espoirs Filles
345 DEL FAVERO ALINE 840 1:07:29 8,53 7:01 45 Dames
346 KOHL SANDRINE 834 1:07:30 8,53 7:01 46 Dames
347 LEJEUNE MICHEL 819 1:07:31 8,53 7:02 64 Vétérans 1
348 MARGREVE NADIA 903 1:07:46 8,50 7:03 31 Ainées 1
349 JEFFREY JEF 904 1:07:47 8,50 7:03 30 Vétérans 2
350 DIGNEFFE VALERIE 994 1:07:56 8,48 7:04 47 Dames
351 DETREMBLEUR FABIENNE 1008 1:08:10 8,45 7:06 15 Ainées 2
352 DENIS CHANTAL 996 1:08:15 8,44 7:06 32 Ainées 1
353 MARION ANNE-SOPHIE 986 1:08:18 8,43 7:06 48 Dames
354 HOUBA ANNE 901 1:08:23 8,42 7:07 33 Ainées 1
355 DOGNE CHRISTEL 899 1:08:24 8,42 7:07 34 Ainées 1
356 CHUGG JOSH 922 1:08:25 8,42 7:07 117 Séniors
357 CLAESSEN MARIE 961 1:08:27 8,41 7:07 5 Espoirs Filles
358 KAYE DELPHINE 997 1:08:30 8,41 7:08 35 Ainées 1
359 SCHMITT VINCENT 891 1:08:31 8,41 7:08 65 Vétérans 1
360 CLAESSEN NICOLAS 960 1:08:33 8,40 7:08 66 Vétérans 1
361 WILKIN CATHERINE 874 1:08:34 8,40 7:08 49 Dames
362 CHUGG PERRINE 923 1:08:35 8,40 7:08 50 Dames
363 MINEUR BENEDICTE 957 1:08:37 8,39 7:08 36 Ainées 1
364 LAMBERT MICHEL 823 1:08:38 8,39 7:08 17 Vétérans 3